Regional Weather Roundup
Issued by NWS

Home | Current Version | Previous Version | Text Only | Print | Product List | Glossary On
Versions: 1 2 3 4 5 6 7 8 9 10 11 12 13 14 15 16 17 18 19 20 21 22 23 24 25 26 27 28 29 30 31 32 33 34 35 36 37 38 39 40 41 42 43 44 45 46 47 48 49 50
000
ASUS45 KREV 300710
RWRNV
NEVADA REGIONAL WEATHER ROUNDUP
NATIONAL WEATHER SERVICE RENO NV
1100 PM PST THU JAN 29 2015

NOTE: "FAIR" INDICATES FEW OR NO CLOUDS BELOW 12,000 FEET WITH NO
SIGNIFICANT WEATHER AND/OR OBSTRUCTIONS TO VISIBILITY.

NVZ001-003-004-300800-
WESTERN NEVADA

CITY           SKY/WX    TMP DP  RH WIND       PRES   REMARKS
RENO           MOCLDY    45  34  65 N3        30.18S
CARSON CITY    CLOUDY    45  36  70 E6        30.19S
SLIDE MTN        N/A     30  28  93 NE6         N/A
FALLON         CLOUDY    40  37  89 S3        30.18S
LOVELOCK       CLOUDY    45  37  73 N6        30.17F
HAWTHORNE      CLOUDY    45  37  76 CALM      30.18S
$$

NVZ002-CAZ072-073-300800-
NORTHERN AND CENTRAL SIERRA

CITY           SKY/WX    TMP DP  RH WIND       PRES   REMARKS
S. LAKE TAHOE  CLOUDY    34  28  79 CALM      30.18S
TRUCKEE        CLOUDY    34  32  93 CALM      30.19S
SQUAW VLY 8000   N/A     34  32  93 CALM        N/A
BLUE CANYON    CLEAR     45  31  58 NE6       30.15S
MAMMOTH LAKES  CLOUDY    34  27  75 CALM      30.19S
BRIDGEPORT     FAIR      29  22  75 CALM      30.17F
$$

NVZ030-031-036-300800-
NORTHERN NEVADA

CITY           SKY/WX    TMP DP  RH WIND       PRES   REMARKS
ELKO           CLOUDY    38  32  79 E3        30.20S
WINNEMUCCA     MOCLDY    37  32  82 NE13      30.21S
WENDOVER       CLOUDY    37  30  75 NE3       30.25S
$$

NVZ035-037-300800-
CENTRAL NEVADA

CITY           SKY/WX    TMP DP  RH WIND       PRES   REMARKS
ELY            CLOUDY    34  34 100 CALM      30.21F
EUREKA           N/A     37  30  75 E3        30.19S
$$

NVZ013-014-300800-
SOUTH CENTRAL NEVADA

CITY           SKY/WX    TMP DP  RH WIND       PRES   REMARKS
TONOPAH        CLOUDY    38  33  82 N6        30.18S
$$

NVZ017-020-022-300800-
SOUTHERN NEVADA

CITY           SKY/WX    TMP DP  RH WIND       PRES   REMARKS
LAS VEGAS      CLOUDY    58  42  55 S8        30.03S
N. LAS VEGAS   CLOUDY    58  36  43 NW8       30.06S
NELLIS AFB     CLOUDY    58  41  53 SE5       30.06S
HENDERSON      CLOUDY    55  41  59 E5        30.09S
MERCURY        CLOUDY    53  39  59 NE9       30.10R
$$


USA.gov is the U.S. government's official web portal to all federal, state and local government web resources and services.